TimeEST,TemperatureF,Dew PointF,Humidity,Sea Level PressureIn,VisibilityMPH,Wind Direction,Wind SpeedMPH,Gust SpeedMPH,PrecipitationIn,Events,Conditions,WindDirDegrees,DateUTC
12:53 AM,27.0,14.0,58,30.01,10.0,Calm,Calm,-,N/A,,Partly Cloudy,0,2014-01-16 05:53:00
1:53 AM,23.0,14.0,68,30.00,10.0,NW,4.6,-,N/A,,Clear,320,2014-01-16 06:53:00
2:53 AM,25.0,15.1,66,30.01,10.0,Calm,Calm,-,N/A,,Overcast,0,2014-01-16 07:53:00
3:53 AM,25.0,15.1,66,30.01,10.0,Calm,Calm,-,N/A,,Overcast,0,2014-01-16 08:53:00
4:53 AM,25.0,12.9,60,30.01,10.0,Calm,Calm,-,N/A,,Overcast,0,2014-01-16 09:53:00
5:53 AM,21.9,14.0,72,30.02,10.0,Calm,Calm,-,N/A,,Mostly Cloudy,0,2014-01-16 10:53:00
6:53 AM,19.0,12.9,77,30.02,10.0,Calm,Calm,-,N/A,,Partly Cloudy,0,2014-01-16 11:53:00
7:53 AM,19.0,12.0,74,30.04,10.0,Calm,Calm,-,N/A,,Partly Cloudy,0,2014-01-16 12:53:00
8:53 AM,26.1,15.1,63,30.04,10.0,Calm,Calm,-,N/A,,Clear,0,2014-01-16 13:53:00
9:53 AM,27.0,14.0,58,30.04,10.0,WSW,3.5,-,N/A,,Partly Cloudy,240,2014-01-16 14:53:00
10:53 AM,28.9,15.1,56,30.04,10.0,South,4.6,-,N/A,,Partly Cloudy,180,2014-01-16 15:53:00
11:53 AM,30.9,14.0,50,29.99,10.0,WSW,8.1,-,N/A,,Partly Cloudy,240,2014-01-16 16:53:00
12:53 PM,34.0,12.9,42,29.95,10.0,SSW,10.4,-,N/A,,Partly Cloudy,210,2014-01-16 17:53:00
1:53 PM,35.1,12.9,40,29.92,10.0,SSW,8.1,-,N/A,,Partly Cloudy,210,2014-01-16 18:53:00
2:53 PM,37.9,10.0,32,29.91,10.0,WSW,9.2,-,N/A,,Scattered Clouds,250,2014-01-16 19:53:00
3:53 PM,37.0,10.0,33,29.89,10.0,SW,11.5,-,N/A,,Overcast,230,2014-01-16 20:53:00
4:53 PM,37.0,9.0,31,29.89,10.0,SW,8.1,-,N/A,,Mostly Cloudy,220,2014-01-16 21:53:00
5:53 PM,35.1,10.0,35,29.87,10.0,SSE,3.5,-,N/A,,Mostly Cloudy,150,2014-01-16 22:53:00
6:53 PM,28.9,14.0,54,29.89,10.0,North,5.8,-,N/A,,Partly Cloudy,350,2014-01-16 23:53:00
7:53 PM,28.9,14.0,54,29.91,10.0,NNW,5.8,-,N/A,,Scattered Clouds,340,2014-01-17 00:53:00
8:53 PM,30.9,15.1,52,29.93,10.0,Calm,Calm,-,N/A,,Mostly Cloudy,0,2014-01-17 01:53:00
9:53 PM,30.9,19.0,61,29.96,10.0,Calm,Calm,-,N/A,,Mostly Cloudy,0,2014-01-17 02:53:00
10:53 PM,30.9,19.9,64,29.96,10.0,Calm,Calm,-,N/A,,Overcast,0,2014-01-17 03:53:00
11:53 PM,30.9,19.9,64,29.94,10.0,Calm,Calm,-,N/A,,Overcast,0,2014-01-17 04:53:00